Regional Weather Roundup
Issued by NWS New Orleans/Baton Rouge, LA

Home | Current Version | Previous Version | Graphics & Text | Print | Product List | Glossary On
Versions: 1 2 3 4 5 6 7 8 9 10 11 12 13 14 15 16 17 18 19 20 21 22 23 24 25 26 27 28 29 30 31 32 33 34 35 36 37 38 39 40 41 42 43 44 45 46 47 48 49 50
854
ASUS44 KLIX 291501
RWRLIX
NEW ORLEANS REGIONAL WEATHER ROUNDUP
NATIONAL WEATHER SERVICE NEW ORLEANS LA
900 AM CST THU JAN 29 2015

NOTE: "FAIR" INDICATES FEW OR NO CLOUDS BELOW 12,000 FEET WITH NO
      SIGNIFICANT WEATHER AND/OR OBSTRUCTIONS TO VISIBILITY.
      SKY/WX - SKY CONDITION AND SIGNIFICANT WEATHER.
      TMP - AIR TEMPERATURE.     DP    - DEWPOINT TEMPERATURE.
      RH  - RELATIVE HUMIDITY.   PRES  - PRESSURE.
      HI  - HEAT INDEX.          WCI   - WIND CHILL INDEX.

*  THESE STATIONS ARE NOT NWS OR FAA STATIONS AND ARE NOT UNDER
   NWS QUALITY CONTROL.

LAZ038-040-048-061>063-065>067-069-291600-
SOUTHEAST LOUISIANA

CITY           SKY/WX    TMP DP  RH WIND       PRES   REMARKS
N.O. AUDUBON   NOT AVBL
N.O. INTL ARPT MOSUNNY   62  54  74 S6        30.25R
N.O. LAKEFRONT SUNNY     62  52  69 S7        30.26R
N.O. DOWNTOWN* NOT AVBL
SLIDELL        SUNNY     59  51  75 CALM      30.26R
BATON ROUGE    MOSUNNY   56  50  80 CALM      30.25R
BOOTHVILLE     SUNNY     63  53  70 SE7       30.27R
BELLE CHASSE   PTSUNNY   63  52  67 S6        30.25R
BOGALUSA*        N/A     52  46  79 CALM      30.27S
GALLIANO*      NOT AVBL
NEW ROADS*     NOT AVBL
GONZALES*      NOT AVBL
HAMMOND*       NOT AVBL
HOUMA*         SUNNY     61  57  88 SE7       30.24R
PORT FOURCHON* SUNNY     66  61  82 SE9       30.28R

$$

MSZ070-080>082-291600-
SOUTHERN MISSISSIPPI

CITY           SKY/WX    TMP DP  RH WIND       PRES   REMARKS
MCCOMB         MOSUNNY   52  49  89 S6        30.24S
GULFPORT       SUNNY     60  53  77 S8        30.26R
BILOXI         SUNNY     62  54  74 S7        30.26R
PASCAGOULA     SUNNY     59  54  83 SE3       30.27S
STENNIS ARPT*  SUNNY     55  48  76 CALM      30.26R

$$

COASTAL OBSERVATIONS
LAKE AND NEARSHORE STATIONS

STATION/POSITION TIME  TEMP    WIND        PRES    WAVE
                       AIR SEA DIR/SP/G            HT/PER
                 (UTC) (F)     (DEG/KT/KT) (MB)    (FT/S)
PASCAGOULA       1419   60     130/  4/  8 1024.3
WAVELAND YACHT   1419   53     150/  5/  7 1023.1
GRAND ISLE       1419   64 61  150/  5/  9 1024.4
SOUTHWEST PASS   1419   58 45  130/ 10/ 12 1024.6
NEW CANAL        1419   56 53  160/  3/  5 1023.8
SHELL BEACH      1419   55 55  140/  7/  8 1024.0

OFFSHORE STATIONS

STATION/POSITION TIME  TEMP    WIND        PRES    WAVE
                       AIR SEA DIR/SP/G            HT/PER
                 (UTC) (F)     (DEG/KT/KT) (MB)    (FT/S)
64 S DAUPHIN ISL 1436   65 69  160/ 14/ 16 1025.7    2/ 4

$$




USA.gov is the U.S. government's official web portal to all federal, state and local government web resources and services.